When you browse on this site, cookies collect data to enhance your experience and personalize the content and advertising you see.
Visit our Privacy Policy to learn more. By continuing to use the site, you agree to this use of cookies and data.
  • In Deutschland
  • Länderverzeichnis
  • Für 7 Tage
  • Wassertemperatur
  • Wetterkarte
  • Widgets
  • user-avatar
    Anmelden

    Stündliche Wetter Hajduboszormeny

    Heute, 25 Februar, Dienstag

    Zeit Temperatur Niederschläge Wind Luftdruck Luftfeuchtigkeit
    00:00 +3°C° 0 mm 4 m/S 751 mmHg 75%
    01:00 +3°C° 0 mm 4 m/S 750 mmHg 74%
    02:00 +2°C° 0 mm 5 m/S 750 mmHg 72%
    03:00 +3°C° 0 mm 5 m/S 749 mmHg 71%
    04:00 +3°C° 0 mm 6 m/S 748 mmHg 69%
    05:00 +3°C° 0 mm 6 m/S 748 mmHg 69%
    06:00 +2°C° 0 mm 6 m/S 748 mmHg 69%
    07:00 +2°C° 0 mm 6 m/S 747 mmHg 68%
    08:00 +3°C° 0 mm 6 m/S 747 mmHg 65%
    09:00 +5°C° 0 mm 6 m/S 746 mmHg 61%
    10:00 +7°C° 0 mm 6 m/S 746 mmHg 57%
    11:00 +8°C° 0 mm 5 m/S 746 mmHg 57%
    12:00 +9°C° 0 mm 5 m/S 745 mmHg 56%
    13:00 +10°C° 0 mm 5 m/S 744 mmHg 56%
    14:00 +11°C° 0 mm 4 m/S 744 mmHg 59%
    15:00 +11°C° 0 mm 4 m/S 743 mmHg 61%
    16:00 +12°C° 0 mm 4 m/S 742 mmHg 64%
    17:00 +11°C° 0 mm 4 m/S 742 mmHg 67%
    18:00 +10°C° 0 mm 4 m/S 742 mmHg 70%
    19:00 +9°C° 0 mm 5 m/S 742 mmHg 73%
    20:00 +9°C° 0 mm 5 m/S 742 mmHg 74%
    21:00 +9°C° 0 mm 5 m/S 741 mmHg 75%
    22:00 +9°C° 0 mm 5 m/S 740 mmHg 76%
    23:00 +8°C° 0 mm 5 m/S 740 mmHg 77%

    Morgen, 26 Februar, Mittwoch

    Zeit Temperatur Niederschläge Wind Luftdruck Luftfeuchtigkeit
    00:00 +8°C° 0 mm 5 m/S 740 mmHg 78%
    01:00 +7°C° 0 mm 5 m/S 739 mmHg 79%
    02:00 +7°C° 0.2 mm 5 m/S 738 mmHg 81%
    03:00 +7°C° 0.2 mm 5 m/S 738 mmHg 82%
    04:00 +7°C° 0.2 mm 5 m/S 737 mmHg 83%
    05:00 +7°C° 0.4 mm 5 m/S 736 mmHg 83%
    06:00 +7°C° 0.4 mm 6 m/S 736 mmHg 83%
    07:00 +7°C° 0.4 mm 6 m/S 735 mmHg 83%
    08:00 +7°C° 0.5 mm 6 m/S 735 mmHg 84%
    09:00 +7°C° 0.5 mm 5 m/S 735 mmHg 85%
    10:00 +7°C° 0.5 mm 5 m/S 735 mmHg 86%
    11:00 +8°C° 0.1 mm 5 m/S 735 mmHg 79%
    12:00 +8°C° 0.1 mm 6 m/S 734 mmHg 72%
    13:00 +9°C° 0.1 mm 6 m/S 734 mmHg 65%
    14:00 +9°C° 0 mm 5 m/S 734 mmHg 65%
    15:00 +10°C° 0 mm 4 m/S 734 mmHg 64%
    16:00 +9°C° 0 mm 3 m/S 734 mmHg 64%
    17:00 +9°C° 0 mm 3 m/S 734 mmHg 67%
    18:00 +8°C° 0 mm 3 m/S 735 mmHg 70%
    19:00 +7°C° 0 mm 3 m/S 735 mmHg 73%
    20:00 +5°C° 0 mm 3 m/S 735 mmHg 74%
    21:00 +5°C° 0 mm 3 m/S 736 mmHg 76%
    22:00 +4°C° 0 mm 3 m/S 736 mmHg 77%
    23:00 +4°C° 0 mm 3 m/S 736 mmHg 77%

    übermorgen, 27 Februar, Donnerstag

    Zeit Temperatur Niederschläge Wind Luftdruck Luftfeuchtigkeit
    00:00 +3°C° 0 mm 3 m/S 736 mmHg 77%
    01:00 +4°C° 0 mm 2 m/S 737 mmHg 77%
    02:00 +4°C° 0 mm 2 m/S 737 mmHg 76%
    03:00 +4°C° 0 mm 2 m/S 737 mmHg 75%
    04:00 +4°C° 0 mm 2 m/S 737 mmHg 73%
    05:00 +4°C° 0 mm 2 m/S 738 mmHg 75%
    06:00 +4°C° 0 mm 2 m/S 738 mmHg 77%
    07:00 +2°C° 0 mm 3 m/S 739 mmHg 78%
    08:00 +3°C° 0 mm 3 m/S 740 mmHg 73%
    09:00 +4°C° 0 mm 3 m/S 740 mmHg 67%
    10:00 +5°C° 0 mm 3 m/S 741 mmHg 62%
    11:00 +5°C° 0 mm 3 m/S 741 mmHg 58%
    12:00 +7°C° 0 mm 3 m/S 741 mmHg 54%
    13:00 +7°C° 0 mm 4 m/S 741 mmHg 49%
    14:00 +7°C° 0 mm 4 m/S 741 mmHg 50%
    15:00 +7°C° 0 mm 4 m/S 741 mmHg 51%
    16:00 +6°C° 0 mm 5 m/S 741 mmHg 52%
    17:00 +5°C° 0 mm 4 m/S 742 mmHg 57%
    18:00 +4°C° 0 mm 4 m/S 742 mmHg 61%
    19:00 +3°C° 0 mm 4 m/S 742 mmHg 66%
    20:00 +3°C° 0 mm 4 m/S 742 mmHg 67%
    21:00 +1°C° 0 mm 4 m/S 742 mmHg 68%
    22:00 +1°C° 0 mm 4 m/S 741 mmHg 69%
    23:00 +1°C° 0 mm 5 m/S 741 mmHg 68%

    28 Februar, Freitag

    Zeit Temperatur Niederschläge Wind Luftdruck Luftfeuchtigkeit
    00:00 +1°C° 0 mm 6 m/S 741 mmHg 66%
    01:00 0°C° 0 mm 7 m/S 740 mmHg 65%
    02:00 0°C° 0.6 mm 8 m/S 739 mmHg 72%
    03:00 0°C° 0.6 mm 9 m/S 738 mmHg 79%
    04:00 0°C° 0.6 mm 10 m/S 738 mmHg 86%
    05:00 0°C° 0.7 mm 9 m/S 737 mmHg 83%
    06:00 0°C° 0.7 mm 8 m/S 737 mmHg 80%
    07:00 +1°C° 0.7 mm 8 m/S 737 mmHg 77%
    08:00 +2°C° 0.1 mm 7 m/S 738 mmHg 74%
    09:00 +3°C° 0.1 mm 7 m/S 738 mmHg 71%
    10:00 +4°C° 0.1 mm 6 m/S 739 mmHg 68%
    11:00 +4°C° 0.2 mm 6 m/S 739 mmHg 63%
    12:00 +5°C° 0.2 mm 7 m/S 740 mmHg 58%
    13:00 +6°C° 0.2 mm 7 m/S 741 mmHg 53%
    14:00 +5°C° 0.2 mm 6 m/S 742 mmHg 54%
    15:00 +6°C° 0.2 mm 5 m/S 743 mmHg 55%
    16:00 +6°C° 0.2 mm 5 m/S 744 mmHg 56%
    17:00 +5°C° 0.1 mm 5 m/S 745 mmHg 59%
    18:00 +4°C° 0.1 mm 4 m/S 746 mmHg 63%
    19:00 +3°C° 0.1 mm 4 m/S 747 mmHg 66%
    20:00 +1°C° 0 mm 4 m/S 748 mmHg 68%
    21:00 +1°C° 0 mm 4 m/S 748 mmHg 69%
    22:00 +1°C° 0 mm 3 m/S 749 mmHg 71%
    23:00 +1°C° 0 mm 3 m/S 749 mmHg 73%

    29 Februar, Samstag

    Zeit Temperatur Niederschläge Wind Luftdruck Luftfeuchtigkeit
    00:00 0°C° 0 mm 3 m/S 749 mmHg 76%
    01:00 0°C° 0 mm 3 m/S 749 mmHg 78%
    02:00 0°C° 0 mm 3 m/S 749 mmHg 80%
    03:00 -1°C° 0 mm 3 m/S 749 mmHg 82%
    04:00 -1°C° 0 mm 3 m/S 749 mmHg 84%
    05:00 -1°C° 0 mm 3 m/S 749 mmHg 83%
    06:00 -1°C° 0 mm 3 m/S 749 mmHg 82%
    07:00 -2°C° 0 mm 4 m/S 750 mmHg 81%
    08:00 0°C° 0 mm 4 m/S 749 mmHg 74%
    09:00 +1°C° 0 mm 4 m/S 749 mmHg 68%
    10:00 +4°C° 0 mm 4 m/S 749 mmHg 61%
    11:00 +5°C° 0 mm 5 m/S 748 mmHg 57%
    12:00 +5°C° 0 mm 6 m/S 748 mmHg 53%
    13:00 +5°C° 0 mm 6 m/S 748 mmHg 49%
    14:00 +5°C° 0 mm 6 m/S 747 mmHg 50%
    15:00 +5°C° 0 mm 6 m/S 747 mmHg 51%
    16:00 +6°C° 0 mm 5 m/S 746 mmHg 52%
    17:00 +6°C° 0 mm 5 m/S 746 mmHg 55%
    18:00 +5°C° 0 mm 5 m/S 746 mmHg 58%
    19:00 +3°C° 0 mm 5 m/S 745 mmHg 60%
    20:00 +3°C° 0 mm 6 m/S 745 mmHg 60%
    21:00 +4°C° 0 mm 6 m/S 745 mmHg 60%
    22:00 +4°C° 0 mm 6 m/S 745 mmHg 60%
    23:00 +4°C° 0 mm 6 m/S 745 mmHg 63%

    1 März, Sonntag

    Zeit Temperatur Niederschläge Wind Luftdruck Luftfeuchtigkeit
    00:00 +3°C° 0 mm 5 m/S 744 mmHg 66%
    01:00 +3°C° 0 mm 5 m/S 744 mmHg 69%
    02:00 +3°C° 0.1 mm 5 m/S 744 mmHg 72%
    03:00 +3°C° 0.1 mm 5 m/S 743 mmHg 74%
    04:00 +3°C° 0.1 mm 5 m/S 743 mmHg 77%
    05:00 +3°C° 0.2 mm 6 m/S 743 mmHg 81%
    06:00 +3°C° 0.2 mm 6 m/S 743 mmHg 85%
    07:00 +3°C° 0.2 mm 6 m/S 743 mmHg 89%
    08:00 +5°C° 0 mm 5 m/S 743 mmHg 87%
    09:00 +5°C° 0 mm 5 m/S 744 mmHg 84%
    10:00 +6°C° 0 mm 4 m/S 744 mmHg 82%
    11:00 +6°C° 0 mm 4 m/S 744 mmHg 79%
    12:00 +7°C° 0 mm 4 m/S 744 mmHg 77%
    13:00 +8°C° 0 mm 3 m/S 744 mmHg 74%
    14:00 +8°C° 0.1 mm 3 m/S 744 mmHg 74%
    15:00 +7°C° 0.1 mm 2 m/S 744 mmHg 74%
    16:00 +8°C° 0.1 mm 1 m/S 744 mmHg 74%
    17:00 +8°C° 0 mm 1 m/S 744 mmHg 77%
    18:00 +6°C° 0 mm 2 m/S 744 mmHg 80%
    19:00 +6°C° 0 mm 2 m/S 744 mmHg 82%
    20:00 +5°C° 0 mm 2 m/S 745 mmHg 82%
    21:00 +5°C° 0 mm 2 m/S 745 mmHg 81%
    22:00 +3°C° 0 mm 3 m/S 746 mmHg 80%
    23:00 +3°C° 0 mm 3 m/S 746 mmHg 81%
    Mehr zeigen